Tracking 30685 objects as of 18-Jun-2025
HD Live streaming from Space Station
objects crossing your sky now

NOAA 16 DEB

Track NOAA 16 DEB now!
10-day predictions


NORAD ID: 41408
Int'l Code: 2000-055KM
Perigee: 789.6 km
Apogee: 804.6 km
Inclination: 98.7 °
Period: 100.7 minutes
Semi major axis: 7168 km
RCS: Unknown
Launch date: September 21, 2000
Source: United States (US)
Launch site: AIR FORCE WESTERN TEST RANGE (AFWTR)

Note: This is SATELLITE DEBRIS
Your satellite tracking list
Your tracking list is empty




NASA's NSSDC Master Catalog

Two Line Element Set (TLE):
1 41408U 00055KM  25168.08921998  .00003403  00000-0  13217-2 0  9991
2 41408  98.7291 258.5705 0010470 225.7154 134.3170 14.30528434482978
Source of the keplerian elements: AFSPC